Hourly Weather Roundup
Issued by NWS Central Illinois

Home | Current Version | Previous Version | Text Only | Print | Product List | Glossary On
Versions: 1 2 3 4 5 6 7 8 9 10 11 12 13 14 15 16 17 18 19 20 21 22 23 24 25 26 27 28 29 30 31 32 33 34 35 36 37 38 39 40 41 42 43 44 45 46 47 48 49 50
000
NZUS43 KILX 300210
HWRILX

AREA WEATHER ROUNDUP
NATIONAL WEATHER SERVICE, LINCOLN IL
900 PM CDT SUN MAY 29 2016


CITY           SKY/WX    TMP DP  RH WIND       PRES   REMARKS
BLOOMINGTON    CLEAR     74  62  66 W6        30.04S
CHAMPAIGN      CLEAR     73  57  57 NW8       30.03S
DANVILLE       CLEAR     72  58  61 W3        29.99S
DECATUR        CLEAR     76  55  48 NW5       30.03R
EFFINGHAM      PTCLDY    72  65  78 CALM      30.04S
FLORA          CLEAR     75  66  73 SW5       30.04S
GALESBURG      CLEAR     71  58  64 CALM      30.03R
JACKSONVILLE   CLOUDY    74  60  60 CALM      30.04R
LACON          CLEAR     69  58  66 CALM      30.00S
LAWRENCEVILLE  CLEAR     75  61  61 W6        30.02S
LITCHFIELD     PTCLDY    72  61  67 W5        30.05R
$$


CITY           SKY/WX    TMP DP  RH WIND       PRES   REMARKS
LINCOLN        CLEAR     75  61  61 CALM      30.02S
MACOMB         CLEAR     72  61  67 SW3       30.05R
MATTOON        CLOUDY    72  53  51 W5        30.02S
MT CARMEL AP   CLEAR     73  60  65 W5        30.02S
OLNEY-NOBLE AP PTCLDY    73  63  68 W3        30.03S
PARIS          CLOUDY    71  58  62 CALM      30.02S
PEORIA         CLEAR     72  56  57 CALM      30.02S
PONTIAC        CLEAR     74  58  55 W3        30.01S
RANTOUL        CLEAR     74  60  59 W5        30.02S
ROBINSON       CLEAR     71  62  72 W7        30.02S
SPRINGFIELD    CLEAR     72  60  66 CALM      30.03S
TAYLORVILLE    CLEAR     72  58  60 W3        30.04R
$$

...REGIONAL REPORTS...


CITY           SKY/WX    TMP DP  RH WIND       PRES   REMARKS
CHICAGO O`HARE PTCLDY    73  57  57 W5        29.98S
KANKAKEE       CLEAR     74  56  52 CALM      30.01S
MOLINE         CLEAR     73  57  57 SW6       30.00R
MOUNT STERLING CLOUDY    69  63  80 S3        30.04R
MOUNT VERNON   PTCLDY    70  63  78 CALM      30.05S
PITTSFIELD     CLOUDY    75  64  66 SW3       30.06R
QUINCY         CLOUDY    74  64  71 CALM      30.04R
ROCKFORD       PTCLDY    73  57  57 SW3       30.00S
$$


CITY           SKY/WX    TMP DP  RH WIND       PRES   REMARKS
BURLINGTON     CLEAR     72  64  76 SW3       30.02R
CEDAR RAPIDS   PTCLDY    71  61  70 S3        29.98S
DES MOINES     PTCLDY    78  54  43 SW5       30.00R
KIRKSVILLE     PTCLDY    73  64  73 S5        30.04S
OTTUMWA        CLEAR     71  62  73 S5        30.01S
ST LOUIS       CLOUDY    79  60  52 CALM      30.05S HX  80
$$


CITY           SKY/WX    TMP DP  RH WIND       PRES   REMARKS
TERRE HAUTE    MOCLDY    76  60  57 W5        30.01S
EVANSVILLE     CLEAR     73  67  81 CALM      30.03R
INDIANAPOLIS   MOCLDY    71  64  78 SW7       29.99S
LAFAYETTE      CLEAR     73  55  53 W7        29.99S
MADISON        PTCLDY    69  57  65 SW5       29.96S
MILWAUKEE      PTCLDY    74  57  55 W7        29.95R
$$





USA.gov is the U.S. government's official web portal to all federal, state and local government web resources and services.